Location: Ariel
(45.9570°N, 122.5700°W)
Time: 19:39:31
(UTC-07:00)

Transit 4A - Pass Details

Date: 24 July 2019
Orbit: 863 x 981 km, 66.8° (Epoch: 21 August)

Event Time Altitude Azimuth Distance (km) Brightness Sun altitude
Rises 06:52:18 0° 316° (NW) 3,691 10.8 10.0°
Reaches altitude 10° 06:57:25 10° 351° (N) 2,732 10.5 10.9°
Maximum altitude 06:59:09 11° 7° (N) 2,647 10.7 11.2°
Drops below altitude 10° 07:00:53 10° 23° (NNE) 2,719 11.0 11.5°
Sets 07:05:55 0° 58° (ENE) 3,639 12.6 12.3°
